Regional Weather Roundup
Issued by NWS Lake Charles, LA

Home | Current Version | Previous Version | Text Only | Print | Product List | Glossary On
Versions: 1 2 3 4 5 6 7 8 9 10 11 12 13 14 15 16 17 18 19 20 21 22 23 24 25 26 27
000
ASUS44 KLCH 260010
RWRLCH
REGIONAL WEATHER ROUNDUP
NATIONAL WEATHER SERVICE LAKE CHARLES LA
700 PM CDT WED MAY 25 2016

Note: "fair" indicates few or no clouds below 12,000 feet with no
significant weather and/or obstructions to visibility.


ACROSS SOUTHEAST TEXAS

CITY           SKY/WX    TMP DP  RH WIND       PRES   REMARKS
BEAUMONT       MOSUNNY   83  75  77 SE14      30.03F
BEAUMONT CITY  NOT AVBL
ORANGE         MOCLDY    82  72  70 S9        30.05F
JASPER         CLOUDY    82  73  74 S7        30.03F
$$

ACROSS CENTRAL LOUISIANA

CITY           SKY/WX    TMP DP  RH WIND       PRES   REMARKS
LEESVILLE      CLOUDY    84  73  69 S13       30.02F
FULLERTON      FAIR      84  72  67 VRB7      30.00F
ALEXANDRIA INT CLOUDY    85  73  67 S10       30.00F
ESLER FIELD    PTSUNNY   87  74  64 S8        30.02F
DERIDDER       FAIR      84  73  68 S10       30.05F
OAKDALE        PTCLDY    83  74  74 S3        30.03F
OPELOUSAS      FAIR      83  73  71 S10       30.05F
$$

ACROSS SOUTHWEST AND SOUTH CENTRAL LOUISIANA

CITY           SKY/WX    TMP DP  RH WIND       PRES   REMARKS
SULPHUR        PTCLDY    83  74  75 SE15      30.05F
LAKE CHARLES   SUNNY     82  73  74 S8        30.05F
CHENNAULT INT  NOT AVBL
CAMERON PHI    PTCLDY    81  77  89 SE13      30.09F
DEQUINCY       FAIR      82  73  75 S8        30.05S
JENNINGS       FAIR      82  73  74 S13       30.05F
LAFAYETTE      SUNNY     84  74  71 S10       30.06F
NEW IBERIA     MOSUNNY   83  73  72 S13       30.08F
ABBEVILLE      MOCLDY    82  75  80 S10       30.08S
PATTERSON      SUNNY     82  74  76 S8        30.09S
SALT POINT       N/A     82  76  81 VRB6      30.07S
$$

SELECTED SITES ACROSS THE REGION

CITY           SKY/WX    TMP DP  RH WIND       PRES   REMARKS
HOUSTON BUSH   CLOUDY    84  73  69 SE18      29.97F
HOUSTON HOBBY  CLOUDY    84  73  69 SE16G24   29.99R
GALVESTON      CLOUDY    82  78  88 SE15      30.02F
COLLEGE STAT   CLOUDY    84  74  71 SE15      29.93R
CONROE         CLOUDY    84  74  71 SE15G21   29.97S
HUNTSVILLE     CLOUDY    86  74  67 S6        29.94S
LUFKIN         CLOUDY    83  73  72 SE10      29.96F
SHREVEPORT     PTSUNNY   87  75  67 S9        29.98R
MONROE         CLOUDY    87  75  67 S5        30.04R
NATCHEZ MS     CLOUDY    84  72  65 S6        30.05S
BATON ROUGE    CLOUDY    87  71  58 S15       30.05S
N.O. INTL ARPT MOCLDY    83  72  69 S12       30.10R
SLIDELL        PTCLDY    81  72  74 SE10      30.10S
$$

MARINE REPORTS

STATION/POSITION TIME  SKY/WX   TEMP    WIND        PRES    VSBY
                                AIR SEA DIR/SP/G
                 (UTC)          (F)     (DEG/KT/KT) (MB)    (MI)
BUOY 30 S HIGH I 2350            81 81  130/ 12/ 14 1016.5F
WVE H/P(F/S)=  4/ 7

SEA RIM ST PARK  0000            80     140/ 11/ 15 1017.6F
PORT ARTHUR      2300               79              1017.7F
SABINE PASS N    2300               83              1019.0F
TEXAS POINT      NOT AVBL
CALCASIEU PASS   2300               82              1017.5F
LK CHARLES BEACH 2300               77              1018.3F
MARSH ISLAND     NOT AVBL
FRESH WATER LOCK 2300               83              1019.5R
AMERADA PASS     2300               80              1018.7F
$$




USA.gov is the U.S. government's official web portal to all federal, state and local government web resources and services.